www.pogodaiklimat.ru
ПОГОДА в Клинтоне
Время
и дата
06:35 07.02
06:55 07.02
07:15 07.02
07:35 07.02
07:55 07.02
08:15 07.02
08:35 07.02
08:55 07.02
09:15 07.02
09:35 07.02
09:55 07.02
10:15 07.02
10:35 07.02
10:55 07.02
11:15 07.02
11:35 07.02
11:55 07.02
12:15 07.02
12:35 07.02
12:55 07.02
13:15 07.02
13:35 07.02
13:55 07.02
14:15 07.02
14:35 07.02
14:55 07.02
15:15 07.02
15:35 07.02
15:55 07.02
16:15 07.02
16:35 07.02
16:55 07.02
17:15 07.02
17:35 07.02
17:55 07.02
18:15 07.02
18:35 07.02
18:55 07.02
19:15 07.02
19:35 07.02
19:55 07.02
20:15 07.02
20:35 07.02
20:55 07.02
21:15 07.02
21:35 07.02
21:55 07.02
22:15 07.02
Ветер
(напр.,м/с)
Видим. Явления Облачность Т
(С)
Тd
(С)
f
(%)
Тe
(С)
Тes
(С)
Комфортность P
(гПа)
Po
(гПа)
Тmin
(С)
Tmax
(С)
R
(мм)
R24
(мм)
S
(см)
З 3 16 км 2/0 3600 m
[Ac]
+4.0 +1.0 81 0 0 989.2
З 3 16 км 8/0 3600 m
[Ac]
+4.0 +1.0 81 0 0 989.2
З 2 16 км 2/0 3600 m
[Ac]
+3.0 0.0 81 0 0 989.9
СЗ 2 16 км ясно +3.0 +1.0 87 0 0 990.2
штиль 0 16 км ясно +2.0 0.0 87 +1 +1 990.5
штиль 0 16 км ясно +2.0 0.0 87 +1 +2 990.8
штиль 0 14 км ясно +4.0 +2.0 87 +3 +4 991.2
З 3 14 км ясно +5.0 +1.0 75 +2 +2 991.5
СЗ 4 16 км ясно +6.0 +1.0 70 +2 +4 991.8
СЗ 5 14 км ясно +6.0 +1.0 70 +2 +3 991.8
СЗ 5 16 км ясно +7.0 +1.0 66 +3 +5 992.2
С 5 16 км ясно +8.0 +1.0 61 +5 +7 992.5
СЗ 4
{7}
16 км ясно +8.0 +1.0 61 +5 +8 992.8
С 4 16 км ясно +9.0 0.0 53 +6 +10 993.1
СЗ 2
{5}
16 км ясно +9.0 0.0 53 +8 +15 993.1
штиль 0 16 км ясно +9.0 0.0 53 +9 +18 993.1
С 3 16 км ясно +10.0 0.0 50 +8 +14 992.8
С 3 16 км ясно +10.0 -1.0 46 +8 +15 992.5
СЗ 4 16 км ясно +11.0 -1.0 43 +9 +14 992.2
нст 2
{6}
16 км ясно +11.0 -1.0 43 +10 +18 991.8
нст 3 14 км ясно +10.0 -2.0 43 +8 +15 991.8
СЗ 4 16 км ясно +11.0 -2.0 40 +9 +14 991.8
СЗ 3
{6}
16 км ясно +11.0 -3.0 37 +10 +16 992.2
штиль 0 16 км ясно +10.0 -2.0 43 +10 +18 992.2
З 2 16 км ясно +10.0 -2.0 43 +9 +15 992.2
З 2 16 км ясно +10.0 -2.0 43 +9 +15 992.2
штиль 0 16 км ясно +11.0 -2.0 40 +11 +16 992.5
штиль 0 16 км ясно +11.0 -4.0 35 +11 +16 992.8
штиль 0 16 км ясно +11.0 -3.0 37 +11 +16 992.8
штиль 0 16 км ясно +11.0 -2.0 40 +11 +13 992.8
штиль 0 16 км ясно +10.0 -2.0 43 +10 +12 992.8
штиль 0 14 км ясно +10.0 -2.0 43 +10 +12 992.5
штиль 0 16 км ясно +9.0 -1.0 50 +9 +9 992.5
штиль 0 16 км ясно +9.0 -4.0 40 +9 +9 992.5
штиль 0 16 км ясно +9.0 -4.0 40 +9 +9 992.8
штиль 0 16 км ясно +6.0 -2.0 56 +6 +6 992.8
штиль 0 16 км ясно +6.0 -3.0 52 +6 +6 993.1
штиль 0 16 км 2/2 960 м +5.0 -2.0 61 +4 +4 993.1
штиль 0 14 км ясно +5.0 -2.0 61 +4 +4 993.5
штиль 0 16 км ясно +6.0 -3.0 52 +6 +6 993.8
штиль 0 16 км ясно +5.0 -3.0 56 +5 +5 993.8
штиль 0 16 км ясно +4.0 -3.0 60 +3 +3 993.8
штиль 0 16 км ясно +3.0 -3.0 65 +2 +2 994.1
штиль 0 16 км ясно +4.0 -3.0 60 +3 +3 994.1
штиль 0 16 км ясно +3.0 -3.0 65 +2 +2 994.5
штиль 0 16 км ясно +3.0 -3.0 65 +2 +2 994.5
штиль 0 16 км ясно +3.0 -3.0 65 +2 +2 994.5
штиль 0 16 км ясно +4.0 -3.0 60 +3 +3 994.5
Местоположение метеостанции Clinton Memopial Airport: широта 38.3566 долгота -93.6842 высота над уровнем моря 251 м.
В архиве по умолчанию представлена погода в Клинтоне за последние 1-2 суток. Обновление информации о фактической погоде в базе происходит ежечасно! Архивные данные за месяц целиком и за предыдущие месяцы Вы можете получить, выбрав интересующий диапазон дат из раскрывающегося списка и нажав кнопку "Ввод!".
Внимание! Архив погоды МЕТАР в базе сайта по станциям, не включенным в климатический монитор, хранится не более 60 дней. Нет смысла пытаться выбрать более раннюю дату.
*Определитесь, кто Вы:
Внимание! Время в таблицах - местное (без учета летнего времени). Для получения всемирного времени необходимо вычесть поправку, которая равна -6 ч.
Смотрите также архив погоды в соседних городах и на ближайших метеорологических станциях:
Партнеры нашего сайта:      
Пояснения к столбцам:
  • Ветер - указаны скорость ветра в м/с - средняя за 10 мин, порывы в срок и между сроками (в фигурных скобках) и направление, откуда дует ветер: С - северный,
  • СВ - северо-восточный, В - восточный, ЮВ - юго-восточный, Ю - южный, ЮЗ - юго-западный, З - западный, СЗ - северо-западный.
  • Видимость - горизонтальная дальность видимости в метрах или километрах. При видимости от 1 до 10 км при отсутствии осадков обычно наблюдается дымка, при ухудшении видимости до 1 км и менее - туман. В сухую погоду видимость может ухудшаться дымом, пылью или мглою.
  • Явления - указаны атмосферные явления, наблюдавшиеся в срок или в последний час перед сроком; фигурными скобками обозначены явления, наблюдавшиеся между сроками (за 1-3 часа до срока); квадратными скобками обозначены град или гололедные отложения с указанием их диаметра в мм.
  • Облачность - указаны через наклонную черту общая и нижняя облачность в баллах и высота нижней границы облаков в метрах; квадратными скобками обозначены формы облаков: Ci - перистые, Cs - перисто-слоистые, Cc - перисто-кучевые, Ac - высококучевые, As - высокослоистые, Sc - слоисто-кучевые, Ns - слоисто-дождевые, Cu - кучевые, Cb - кучево-дождевые. Подробнее классификацию облаков см. в Атласе облаков (PDF).
  • T - Температура воздуха - температура, измеренная на высоте 2 м над землей.
  • Td - Температура точки росы - температура, при понижении до которой содержащийся в воздухе водяной пар достигнет насыщения.
  • f - Относительная влажность воздуха - влажноcть воздуха, измеренная на высоте 2 м над землей.
  • Te - Эффективная температура - температура, которую ощущает одетый по сезону человек в тени. Характеристика душности погоды. При расчете учитывается влияние влажности воздуха и скорости ветра на теплоощущения человека.
  • Tes - Эффективная температура на солнце - температура, которую ощущает человек, с поправкой на солнечный нагрев. Характеристика знойности погоды. Зависит от высоты солнца над горизонтом, облачности и скорости ветра. Ночью, в пасмурную погоду, а также при ветре 12 м/с и более поправка равна нулю.
  • P - Атмосферное давление - приведенное к уровню моря атмосферное давление.
  • Po - Атмосферное давление - измеренное на уровне метеостанции атмосферное давление.
  • Tmin - Минимальная температура - минимум температуры воздуха на высоте 2 м над землей.
  • Tmax - Максимальная температура - максимум температуры воздуха на высоте 2 м над землей.
  • R - Количество осадков - Количество выпавших осадков за период времени, мм. При наведении курсора мыши на число - период времени, за который выпало указанное количество осадков.
  • R24 - Количество осадков - Количество выпавших осадков за 24 часа, мм.
  • S - Снежный покров - Высота снежного покрова, см. При наведении курсора мыши на число - состояние снежного покрова и степень покрытия местности в баллах.